This is the latest recevied weather packets stored in our database for station/object KD7JB. If no packets are shown the sender has not sent any weather packets the latest 10 day(s).
| Time | Temp. | Humidity | Pressure | Rain* | Wind** | Luminosity | Snow |
|---|---|---|---|---|---|---|---|
| 1778028736 | 20° C | 44% | 1173.8 hPa | 0 mm | - | 161 W/m² | - |
| 1778028432 | 20° C | 44% | 1174 hPa | 0 mm | - | 88 W/m² | - |
| 1778028130 | 20° C | 44% | 1173.9 hPa | 0 mm | - | 75 W/m² | - |
| 1778027826 | 20° C | 44% | 1173.9 hPa | 0 mm | - | 197 W/m² | - |
| 1778027523 | 19.44° C | 45% | 1173.9 hPa | 0 mm | - | 136 W/m² | - |
| 1778027218 | 20.56° C | 41% | 1173.8 hPa | 0 mm | - | 59 W/m² | - |
| 1778026915 | 21.11° C | 43% | 1174 hPa | 0 mm | - | 303 W/m² | - |
| 1778026610 | 21.11° C | 43% | 1174 hPa | 0 mm | - | 315 W/m² | - |
| 1778026308 | 20.56° C | 43% | 1174 hPa | 0 mm | - | 338 W/m² | - |
| 1778026005 | 20.56° C | 44% | 1173.9 hPa | 0 mm | - | 343 W/m² | - |
| 1778025703 | 21.11° C | 43% | 1174.3 hPa | 0 mm | - | 352 W/m² | - |
| 1778025401 | 21.11° C | 42% | 1174.3 hPa | 0 mm | - | 365 W/m² | - |
| 1778025098 | 21.11° C | 43% | 1174.3 hPa | 0 mm | - | 380 W/m² | - |
| 1778024794 | 21.11° C | 43% | 1174.3 hPa | 0 mm | - | 402 W/m² | - |
| 1778024491 | 21.11° C | 44% | 1174.3 hPa | 0 mm | - | 409 W/m² | - |
| 1778024188 | 21.11° C | 42% | 1174.3 hPa | 0 mm | - | 424 W/m² | - |
| 1778023886 | 20.56° C | 43% | 1174.4 hPa | 0 mm | - | 446 W/m² | - |
| 1778023583 | 20° C | 45% | 1174.5 hPa | 0 mm | - | 484 W/m² | - |
| 1778023281 | 21.11° C | 41% | 1174.5 hPa | 0 mm | - | 494 W/m² | - |
| 1778022977 | 20.56° C | 43% | 1174.5 hPa | 0 mm | - | 482 W/m² | - |
| 1778022676 | 21.11° C | 43% | 1174.5 hPa | 0 mm | - | 488 W/m² | - |
| 1778022374 | 21.11° C | 42% | 1174.7 hPa | 0 mm | - | 505 W/m² | - |
| 1778022070 | 20.56° C | 43% | 1174.5 hPa | 0 mm | - | 531 W/m² | - |
| 1778021766 | 21.67° C | 44% | 1174.5 hPa | 0 mm | - | 606 W/m² | - |
| 1778021462 | 20.56° C | 40% | 1174.7 hPa | 0 mm | - | 642 W/m² | - |
* Rain latest hour (hover to see other rain measurements)
** Current wind speed in m/s (hover to see current wind gust speed)